TUI0818 EDDF-EDDC

Flight info

Callsign TUI0818
Flight time N/A
Altitude 23000
Route SULUS4D/07C SULUS L984 KULOK Z715 ABKIS Q240 DRN
Aircraft B738/M-SDE2E3FGHIRWXY/LB1

Departure

Time N/A
Airport Frankfurt Main Airport (EDDF)

Arrival

Time 2026-04-28 13:06
Airport Dresden Airport (EDDC)
Time Latitude Longitude Altitude Speed Heading
2026-04-28 12:50 50.70739 13.16387 23000 ft 453 kts 41°
2026-04-28 12:50 50.73099 13.19717 22999 ft 453 kts 41°
2026-04-28 12:50 50.75525 13.23137 22998 ft 453 kts 41°
2026-04-28 12:51 50.77905 13.26487 22999 ft 453 kts 41°
2026-04-28 12:51 50.80289 13.29843 22999 ft 453 kts 41°
2026-04-28 12:51 50.82713 13.33254 22999 ft 453 kts 41°
2026-04-28 12:51 50.85115 13.36640 22999 ft 453 kts 41°
2026-04-28 12:52 50.87530 13.40045 22999 ft 453 kts 41°
2026-04-28 12:52 50.89948 13.43458 22999 ft 453 kts 41°
2026-04-28 12:52 50.92392 13.46911 22881 ft 455 kts 41°
2026-04-28 12:52 50.94800 13.50317 22620 ft 454 kts 41°
2026-04-28 12:53 50.97322 13.53632 22357 ft 453 kts 36°
2026-04-28 12:53 51.00068 13.56471 22096 ft 451 kts 28°
2026-04-28 12:53 51.03012 13.58539 21836 ft 450 kts 17°
2026-04-28 12:53 51.06150 13.59768 21580 ft 448 kts
2026-04-28 12:54 51.09304 13.60318 21303 ft 442 kts
2026-04-28 12:54 51.12308 13.60522 20981 ft 428 kts
2026-04-28 12:54 51.15292 13.60716 20674 ft 414 kts
2026-04-28 12:54 51.18174 13.60917 20284 ft 405 kts
2026-04-28 12:55 51.21004 13.61111 19996 ft 399 kts
2026-04-28 12:55 51.23867 13.61303 19755 ft 411 kts
2026-04-28 12:55 51.26838 13.61484 19500 ft 424 kts 360°
2026-04-28 12:55 51.29852 13.60835 19232 ft 434 kts 341°
2026-04-28 12:56 51.32515 13.58564 18979 ft 433 kts 320°
2026-04-28 12:56 51.34498 13.54806 18721 ft 430 kts 298°
2026-04-28 12:56 51.35432 13.50226 18468 ft 428 kts 276°
2026-04-28 12:56 51.35216 13.45395 18211 ft 427 kts 253°
2026-04-28 12:57 51.33899 13.41123 17958 ft 425 kts 232°
2026-04-28 12:57 51.31644 13.37933 17702 ft 424 kts 210°
2026-04-28 12:57 51.28876 13.36057 17457 ft 422 kts 197°
2026-04-28 12:57 51.25977 13.35054 17190 ft 403 kts 182°
2026-04-28 12:58 51.23183 13.35705 16987 ft 382 kts 161°
2026-04-28 12:58 51.20718 13.37251 16886 ft 361 kts 157°
2026-04-28 12:58 51.18435 13.38901 16724 ft 345 kts 152°
2026-04-28 12:58 51.16323 13.40794 16233 ft 340 kts 149°
2026-04-28 12:59 51.14198 13.42732 15712 ft 336 kts 150°
2026-04-28 12:59 51.12090 13.44608 15192 ft 333 kts 150°
2026-04-28 12:59 51.09997 13.46461 14672 ft 330 kts 150°
2026-04-28 12:59 51.07922 13.48293 14145 ft 325 kts 150°
2026-04-28 13:00 51.05919 13.50025 13586 ft 312 kts 154°
2026-04-28 13:00 51.03804 13.50868 13017 ft 302 kts 179°
2026-04-28 13:00 51.01662 13.50787 12452 ft 293 kts 179°
2026-04-28 13:00 50.99592 13.51095 11879 ft 287 kts 168°
2026-04-28 13:01 50.97605 13.51968 11242 ft 283 kts 159°
2026-04-28 13:01 50.95750 13.53187 10599 ft 281 kts 155°
2026-04-28 13:01 50.94000 13.54739 9944 ft 278 kts 140°
2026-04-28 13:01 50.92786 13.57190 9297 ft 275 kts 112°
2026-04-28 13:02 50.92437 13.60223 8651 ft 272 kts 84°
2026-04-28 13:02 50.93034 13.63131 8003 ft 270 kts 56°
2026-04-28 13:02 50.94378 13.65168 7373 ft 268 kts 28°
2026-04-28 13:02 50.96207 13.65965 6726 ft 266 kts
2026-04-28 13:03 50.98084 13.65847 6095 ft 264 kts 357°
2026-04-28 13:03 50.99962 13.65689 5443 ft 258 kts 357°
2026-04-28 13:03 51.01728 13.65548 4832 ft 242 kts 357°
2026-04-28 13:03 51.02854 13.65457 4396 ft 236 kts 357°
2026-04-28 13:04 51.05070 13.65331 3393 ft 230 kts
2026-04-28 13:04 51.06579 13.66158 2662 ft 224 kts 37°
2026-04-28 13:04 51.07554 13.68019 2120 ft 202 kts 59°
2026-04-28 13:04 51.08347 13.69720 1867 ft 169 kts 45°
2026-04-28 13:05 51.09177 13.70935 1613 ft 148 kts 41°
2026-04-28 13:05 51.09980 13.72050 1415 ft 145 kts 41°
2026-04-28 13:05 51.10766 13.73130 1222 ft 143 kts 41°
2026-04-28 13:05 51.11533 13.74184 1022 ft 138 kts 41°
2026-04-28 13:06 51.12280 13.75210 842 ft 138 kts 41°
2026-04-28 13:06 51.13004 13.76206 741 ft 106 kts 40°
2026-04-28 13:06 51.13325 13.76648 731 ft 15 kts 41°
2026-04-28 13:06 51.13400 13.76752 728 ft 13 kts 41°
2026-04-28 13:07 51.13473 13.76852 726 ft 13 kts 41°
2026-04-28 13:07 51.13562 13.76975 723 ft 18 kts 41°
2026-04-28 13:07 51.13683 13.77141 718 ft 26 kts 41°
2026-04-28 13:07 51.13819 13.77327 715 ft 22 kts 41°
2026-04-28 13:08 51.13900 13.77471 711 ft 11 kts 83°
2026-04-28 13:08 51.13862 13.77583 710 ft 12 kts 130°
2026-04-28 13:08 51.13794 13.77699 708 ft 12 kts 148°
2026-04-28 13:08 51.13725 13.77678 710 ft 8 kts 217°
2026-04-28 13:09 51.13671 13.77604 713 ft 12 kts 221°
2026-04-28 13:09 51.13592 13.77495 716 ft 16 kts 221°
2026-04-28 13:09 51.13495 13.77361 721 ft 19 kts 221°
2026-04-28 13:09 51.13384 13.77212 728 ft 20 kts 221°
2026-04-28 13:10 51.13271 13.77053 735 ft 20 kts 220°
2026-04-28 13:10 51.13155 13.76896 739 ft 22 kts 221°
2026-04-28 13:10 51.13026 13.76714 743 ft 24 kts 220°
2026-04-28 13:10 51.12880 13.76516 746 ft 29 kts 221°
2026-04-28 13:11 51.12775 13.76370 750 ft 11 kts 221°
2026-04-28 13:11 51.12723 13.76299 752 ft 4 kts 219°
2026-04-28 13:11 51.12704 13.76288 752 ft 2 kts 181°
2026-04-28 13:11 51.12692 13.76294 753 ft 1 kts 149°
2026-04-28 13:12 51.12676 13.76314 754 ft 4 kts 138°
2026-04-28 13:12 51.12652 13.76357 754 ft 4 kts 130°
2026-04-28 13:12 51.12638 13.76382 755 ft 1 kts 132°
2026-04-28 13:12 51.12631 13.76396 755 ft 2 kts 131°
2026-04-28 13:13 51.12626 13.76404 755 ft 0 kts 131°